[[{"header":{"parameterUnit":"m.s-1","parameterCategory":2,"la1":30.2991,"la2":30.254,"lo1":-89.0895,"lo2":-89.0444,"dy":0.0017,"dx":0.0017,"nx":28,"ny":28,"refTime":"2025-06-14T09:00:00:Z","depth":"0","parameterNumber":2,"parameterNumberName":"U-component_of_CURRENTS"},"data":[0,0,0,0,0,0,0,0,0,0,0,0,0,0,0,0,0,0,0,0,0,0,0,0,0,0,0,0,0,0,0,0,0,0,0,0,0,0,0,0,0,0,0,0,0,0,0,0,0,0,0,0,0,0,0,0,0,0,-0.2204,-0.2205,0,-0.2341,-0.2343,-0.2344,-0.2355,-0.2354,-0.2353,-0.2351,-0.2238,-0.2237,-0.2235,0,0,0,0,0,0,0,0,0,0,0,0,0,-0.2033,-0.2036,-0.2203,-0.2205,-0.2207,-0.2341,-0.2343,-0.2344,-0.2355,-0.2354,-0.2352,-0.2351,-0.2239,-0.2237,-0.2235,0,0,0,0,0,0,0,0,0,0,0,0,0,-0.213,-0.2036,-0.2203,-0.2231,-0.2235,-0.2341,-0.2343,-0.2345,-0.2356,-0.2354,-0.2352,-0.235,-0.224,-0.2237,-0.2234,-0.2255,0,0,-0.2226,-0.2225,0,0,0,0,0,0,0,0,-0.2125,-0.2136,-0.2225,-0.2229,-0.2234,-0.2331,-0.2242,-0.2303,-0.2356,-0.2307,-0.2351,-0.2349,-0.2249,-0.2246,-0.2276,-0.225,-0.2245,-0.2226,-0.2224,-0.2223,-0.2222,0,0,0,0,0,0,0,-0.2118,-0.2131,-0.2255,-0.2227,-0.2233,-0.2265,-0.2276,-0.2255,-0.228,-0.2311,-0.2313,-0.2333,-0.2249,-0.2279,-0.2272,-0.2243,-0.2226,-0.2223,-0.2222,-0.222,-0.2172,-0.2172,0,0,0,0,0,0,-0.2104,-0.2124,-0.2251,-0.226,-0.2176,-0.227,-0.2281,-0.23,-0.2286,-0.2285,-0.2335,-0.2333,-0.2284,-0.2276,-0.2268,-0.225,-0.2223,-0.222,-0.2219,-0.2171,-0.2172,-0.2172,0,0,0,0,0,0,-0.21,-0.2114,-0.2246,-0.2197,-0.2216,-0.2274,-0.2295,-0.2304,-0.2317,-0.2307,-0.23,-0.2337,-0.2282,-0.2272,-0.2253,-0.2246,-0.2219,-0.2216,-0.2171,-0.2172,-0.2172,-0.2238,0,0,0,0,0,0,-0.2094,-0.2112,-0.211,-0.2196,-0.2219,-0.2287,-0.2298,-0.2308,-0.2335,-0.2333,-0.2307,-0.2297,-0.228,-0.2258,-0.2251,-0.2241,-0.2214,-0.2171,-0.2171,-0.2172,-0.2235,-0.224,-0.2245,0,0,0,0,0,-0.2088,-0.2087,-0.2109,-0.2125,-0.2218,-0.2288,-0.2301,-0.2335,-0.2336,-0.234,-0.2338,-0.2296,-0.2256,-0.2257,-0.2248,-0.2238,-0.217,-0.2171,-0.2172,-0.2233,-0.2239,-0.2245,0,0,0,0,0,0,-0.2009,-0.2091,-0.2117,-0.214,-0.2203,-0.229,-0.2293,-0.2331,-0.2341,-0.2324,-0.2313,-0.2303,-0.2285,-0.2254,-0.2256,-0.2225,-0.2201,-0.22,-0.225,-0.2256,-0.226,-0.2281,-0.2212,0,0,0,0,0,-0.1996,-0.2015,-0.2105,-0.2122,-0.2145,-0.2221,-0.225,-0.2282,-0.2314,-0.2318,-0.232,-0.2301,-0.2288,-0.2265,-0.2252,-0.2236,-0.2217,-0.2219,-0.2224,-0.2228,-0.2239,-0.2209,-0.2212,-0.2175,-0.2175,-0.2175,0,0,-0.1976,-0.2019,-0.2032,-0.2107,-0.215,-0.2213,-0.2231,-0.2268,-0.2322,-0.2298,-0.2339,-0.232,-0.2291,-0.2286,-0.2271,-0.2252,-0.2232,-0.2229,-0.2233,-0.2241,-0.221,-0.2214,-0.2217,-0.2175,-0.2175,-0.2175,0,0,-0.1956,-0.1975,-0.1995,-0.2049,-0.2118,-0.2177,-0.2187,-0.2275,-0.2299,-0.2343,-0.2341,-0.2326,-0.2314,-0.2307,-0.2294,-0.2313,-0.2268,-0.2292,-0.2323,-0.2294,-0.2297,-0.2299,-0.2298,-0.2299,-0.2284,-0.2284,-0.2284,0,-0.1929,-0.198,-0.2011,-0.2056,-0.2111,-0.2163,-0.2223,-0.2266,-0.2344,-0.2361,-0.2346,-0.2353,-0.2327,-0.2326,-0.2345,-0.2323,-0.231,-0.2305,-0.2301,-0.2303,-0.2304,-0.2302,-0.2303,-0.2287,-0.2287,-0.2287,-0.2286,0,-0.1948,-0.1994,-0.2003,-0.2091,-0.2144,-0.2193,-0.2276,-0.2318,-0.235,-0.2391,-0.2396,-0.2383,-0.2381,-0.2366,-0.2367,-0.2364,-0.2355,-0.232,-0.2289,-0.2312,-0.2308,-0.2308,-0.2292,-0.2291,-0.229,-0.2289,0,0,-0.1891,-0.2002,-0.2008,-0.2073,-0.2171,-0.2229,-0.2295,-0.238,-0.2413,-0.244,-0.2475,-0.2464,-0.2444,-0.2431,-0.2413,-0.2393,-0.2405,-0.237,-0.2367,-0.2376,-0.2364,-0.2119,-0.2095,-0.2367,-0.2367,-0.2367,-0.2365,0,-0.191,-0.2009,-0.2059,-0.2172,-0.2243,-0.2311,-0.2377,-0.2442,-0.247,-0.2508,-0.2478,-0.2488,-0.2469,-0.2461,-0.2443,-0.2426,-0.2405,-0.2411,-0.2334,-0.2333,-0.2116,-0.2085,-0.1973,-0.1939,-0.2364,-0.2364,-0.2364,0,-0.1917,-0.2,-0.211,-0.2246,-0.2276,-0.2345,-0.245,-0.2513,-0.255,-0.2557,-0.2546,-0.253,-0.2536,-0.2494,-0.2466,-0.2472,-0.2429,-0.2398,-0.2396,-0.2141,-0.2084,-0.198,-0.1922,-0.194,-0.2363,-0.2363,-0.2363,0,-0.1899,-0.203,-0.2127,-0.2178,-0.2332,-0.2384,-0.2456,-0.2516,-0.2562,-0.2583,-0.2597,-0.2576,-0.2569,-0.2526,-0.2437,-0.2477,-0.2362,-0.2405,-0.2143,-0.2128,-0.2001,-0.1971,-0.195,-0.2356,-0.2356,-0.2356,-0.2356,0,-0.1922,-0.2001,-0.2125,-0.2198,-0.23,-0.2388,-0.2466,-0.2525,-0.2575,-0.2563,-0.2616,-0.2559,-0.2573,-0.2494,-0.2441,-0.2247,-0.2353,-0.2137,-0.209,-0.2018,-0.1991,-0.1971,-0.2018,-0.2356,-0.2356,-0.2356,-0.2356,0,-0.1919,-0.1992,-0.2118,-0.2268,-0.2306,-0.2382,-0.2499,-0.2524,-0.2592,-0.258,-0.259,-0.2585,-0.2427,-0.2378,-0.2269,-0.2214,-0.2018,-0.1965,-0.1875,-0.1813,-0.1601,-0.1655,-0.1564,-0.1524,-0.1756,-0.175,-0.1744,0,-0.1947,-0.2007,-0.2157,-0.2189,-0.2263,-0.2364,-0.2403,-0.2515,-0.2524,-0.2512,-0.2481,-0.2371,-0.2098,-0.1885,-0.179,-0.1627,-0.1699,-0.1493,-0.1526,-0.154,-0.1571,-0.1647,-0.1631,-0.1435,-0.1428,-0.1422,-0.1417,0,-0.1996,-0.2023,-0.2102,-0.2164,-0.2218,-0.2277,-0.2336,-0.234,-0.2378,-0.2304,-0.205,-0.1813,-0.1612,-0.128,-0.1147,-0.1125,-0.1461,-0.1354,-0.1413,-0.1323,-0.1368,-0.1321,-0.1528,-0.1362,-0.1367,-0.1371,-0.1374,-0.1376,-0.1984,-0.2018,-0.2053,-0.2092,-0.2128,-0.2077,-0.1996,-0.1994,-0.1869,-0.1612,-0.1544,-0.1073,-0.0868,-0.0597,-0.0662,-0.0811,-0.0937,-0.0873,-0.095,-0.1037,-0.0932,-0.0979,-0.0701,-0.0702,-0.0704,-0.0705,-0.0706,0,-0.1927,-0.1922,-0.1961,-0.1932,-0.1837,-0.192,-0.1841,-0.1658,-0.1329,-0.1114,-0.0747,-0.0221,-0.0018,-0.0104,-0.0294,-0.0419,-0.0592,-0.0534,-0.072,-0.0732,-0.0811,-0.0724,-0.038,-0.038,-0.038,-0.038,-0.038,-0.038,-0.1878,-0.1841,-0.1837,-0.1612,-0.1551,-0.1302,-0.1162,-0.093,-0.0717,-0.0155,0.0204,0.042,0.0378,0.0091,-0.025,-0.0369,-0.0512,-0.0461,-0.0556,-0.0723,-0.0767,-0.0808,-0.0739,-0.0403,-0.0403,-0.0465,-0.0465,-0.0466]},{"header":{"parameterUnit":"m.s-1","parameterCategory":2,"la1":30.2991,"la2":30.254,"lo1":-89.0895,"lo2":-89.0444,"dy":0.0017,"dx":0.0017,"nx":28,"ny":28,"refTime":"2025-06-14T09:00:00:Z","depth":"0","parameterNumber":3,"parameterNumberName":"V-component_of_CURRENTS"},"data":[0,0,0,0,0,0,0,0,0,0,0,0,0,0,0,0,0,0,0,0,0,0,0,0,0,0,0,0,0,0,0,0,0,0,0,0,0,0,0,0,0,0,0,0,0,0,0,0,0,0,0,0,0,0,0,0,0,0,0.0047,0.0049,0,0.027,0.0272,0.0275,0.0427,0.0428,0.0428,0.0429,0.0504,0.0506,0.0507,0,0,0,0,0,0,0,0,0,0,0,0,0,-0.0102,-0.0101,0.0047,0.0049,0.0052,0.0269,0.0273,0.0276,0.0427,0.0428,0.0429,0.043,0.0504,0.0505,0.0507,0,0,0,0,0,0,0,0,0,0,0,0,0,0.0028,-0.0101,0.0046,0.0151,0.0163,0.0269,0.0273,0.0277,0.0426,0.0428,0.0429,0.043,0.0504,0.0505,0.0507,0.0493,0,0,0.0513,0.0513,0,0,0,0,0,0,0,0,0.002,0.0033,0.0133,0.0144,0.0157,0.0319,0.0248,0.0341,0.0426,0.0329,0.0429,0.0431,0.0426,0.0434,0.0479,0.0496,0.05,0.0513,0.0514,0.0515,0.0515,0,0,0,0,0,0,0,0.001,0.0025,0.0138,0.0136,0.015,0.0237,0.0256,0.0268,0.0367,0.0338,0.0348,0.0369,0.0432,0.0477,0.0482,0.0501,0.0513,0.0514,0.0516,0.0516,0.0503,0.0502,0,0,0,0,0,0,-0.0031,0.0016,0.0131,0.0144,0.0087,0.0238,0.0259,0.0268,0.037,0.0388,0.0367,0.0375,0.0474,0.048,0.0485,0.044,0.0515,0.0516,0.0517,0.0505,0.0503,0.0501,0,0,0,0,0,0,-0.0036,-0.0024,0.0121,0.0084,0.0108,0.0238,0.0248,0.0272,0.0312,0.0394,0.041,0.0381,0.0475,0.0482,0.0497,0.0444,0.0517,0.0519,0.0506,0.0504,0.0502,0.0369,0,0,0,0,0,0,-0.0041,-0.0027,-0.0038,0.008,0.0109,0.0158,0.0247,0.0275,0.0321,0.0333,0.041,0.042,0.0477,0.0494,0.0498,0.0448,0.052,0.0508,0.0505,0.0503,0.0376,0.0363,0.0352,0,0,0,0,0,-0.0047,-0.0073,-0.004,-0.0026,0.009,0.0156,0.0178,0.0278,0.032,0.0321,0.0388,0.0417,0.0479,0.0494,0.05,0.0449,0.0509,0.0506,0.0503,0.0381,0.0365,0.0352,0,0,0,0,0,0,-0.0135,-0.0057,-0.0018,-0.0016,0.0052,0.018,0.0191,0.0257,0.0317,0.0318,0.0405,0.0419,0.0418,0.0448,0.0462,0.0439,0.0495,0.0493,0.04,0.0386,0.0375,0.0309,0.0522,0,0,0,0,0,-0.0165,-0.0163,-0.0072,-0.0067,-0.0049,0.0065,0.0103,0.0163,0.0235,0.0266,0.0334,0.0382,0.041,0.041,0.0452,0.0424,0.0465,0.0394,0.0382,0.0372,0.0324,0.0302,0.0283,0.0491,0.0491,0.0491,0,0,-0.019,-0.0151,-0.0144,-0.0086,-0.0026,-0.0025,0.0091,0.0125,0.0123,0.0255,0.0272,0.0349,0.04,0.0396,0.0392,0.0408,0.0361,0.0368,0.0358,0.0315,0.0296,0.0276,0.0258,0.0488,0.0489,0.0489,0,0,-0.025,-0.0218,-0.0241,-0.0211,-0.0152,-0.0097,-0.0102,0.0006,0.0045,0.008,0.0169,0.0204,0.0268,0.0288,0.0303,0.0236,0.0312,0.0258,0.0124,0.0104,0.0086,0.007,0.0203,0.0199,0.0234,0.0234,0.0233,0,-0.0283,-0.0315,-0.0236,-0.026,-0.0263,-0.0149,-0.0194,-0.014,-0.0034,-0.003,0.0057,0.0143,0.0204,0.0155,0.0158,0.0202,0.0259,0.0174,0.0085,0.0069,0.0055,0.0194,0.0192,0.0227,0.0228,0.0228,0.0229,0,-0.036,-0.0398,-0.0417,-0.0424,-0.041,-0.0435,-0.037,-0.0352,-0.0281,-0.0213,-0.0198,-0.0084,-0.0044,-0.0011,0.0061,-0.0019,0.0088,0.0087,0.0113,0.0025,0.0181,0.0181,0.0217,0.0219,0.0222,0.0223,0,0,-0.0405,-0.0468,-0.0474,-0.0533,-0.0518,-0.0518,-0.0555,-0.0557,-0.0571,-0.0468,-0.0477,-0.0409,-0.0318,-0.0297,-0.0205,-0.0215,-0.0196,-0.0114,-0.0112,0.0007,-0.0128,0.0027,0.0045,-0.0219,-0.0223,-0.0225,0.0061,0,-0.0499,-0.0621,-0.0613,-0.0732,-0.0803,-0.0756,-0.0789,-0.077,-0.0702,-0.0667,-0.0591,-0.0542,-0.0441,-0.0394,-0.0402,-0.0234,-0.022,-0.0266,-0.0053,-0.0044,0.0089,0.0037,0.011,0.0373,0.0062,0.0062,0.0062,0,-0.0579,-0.0668,-0.082,-0.093,-0.095,-0.0993,-0.1044,-0.1047,-0.0993,-0.093,-0.0893,-0.0773,-0.0732,-0.0633,-0.0481,-0.0508,-0.0354,-0.023,-0.0216,-0.0051,0.0103,0.0389,0.0386,0.0433,0.0063,0.0063,0.0063,0,-0.0678,-0.0807,-0.0957,-0.0993,-0.1083,-0.1143,-0.1165,-0.1135,-0.112,-0.1084,-0.1014,-0.0978,-0.0838,-0.0773,-0.0446,-0.0487,-0.0219,-0.0246,0.0036,0.0058,0.0167,0.02,0.0203,-0.0208,-0.0208,-0.0209,-0.021,0,-0.0812,-0.0921,-0.1019,-0.1111,-0.1248,-0.1252,-0.1335,-0.1333,-0.1279,-0.1196,-0.1143,-0.0995,-0.087,-0.0651,-0.0489,-0.0157,-0.025,0.0004,0.0095,0.0142,0.0167,0.0252,0.0252,-0.0198,-0.02,-0.0203,-0.0204,0,-0.0914,-0.0985,-0.1148,-0.1277,-0.131,-0.1394,-0.1417,-0.1423,-0.137,-0.1247,-0.1223,-0.0979,-0.0666,-0.0479,-0.0216,-0.0104,0.0198,0.0246,0.0385,0.048,0.0684,0.0676,0.081,0.0904,0.0523,0.0528,0.0532,0,-0.099,-0.1092,-0.125,-0.1308,-0.1377,-0.147,-0.149,-0.1481,-0.1414,-0.1152,-0.1046,-0.0733,-0.0374,0.0071,0.0237,0.0504,0.0523,0.072,0.0575,0.0691,0.0748,0.0729,0.0795,0.0746,0.0751,0.0756,0.0759,0,-0.1117,-0.1155,-0.1268,-0.1386,-0.1449,-0.1493,-0.1488,-0.1432,-0.1289,-0.1105,-0.0678,-0.0377,0.007,0.0478,0.0766,0.0866,0.0755,0.082,0.0842,0.0822,0.0893,0.1034,0.0676,0.0799,0.0795,0.0792,0.079,0.0789,-0.1141,-0.1224,-0.1319,-0.1415,-0.1454,-0.1392,-0.1309,-0.1196,-0.0976,-0.0513,-0.031,0.0267,0.0645,0.1072,0.1117,0.1197,0.1135,0.1234,0.121,0.1179,0.1231,0.1032,0.129,0.1289,0.1288,0.1287,0.1287,0,-0.1129,-0.1207,-0.1316,-0.135,-0.1292,-0.1347,-0.1188,-0.098,-0.0569,-0.0179,0.0294,0.0974,0.1325,0.1468,0.1569,0.1587,0.1498,0.1599,0.1518,0.1561,0.1312,0.1276,0.1657,0.1657,0.1657,0.1657,0.1657,0.1657,-0.111,-0.1189,-0.1245,-0.1144,-0.1116,-0.0898,-0.073,-0.042,-0.0098,0.0624,0.1131,0.149,0.1763,0.1796,0.1799,0.1775,0.1804,0.1834,0.1855,0.159,0.155,0.1512,0.1472,0.1889,0.1889,0.2115,0.2117,0.2118]}],[{"header":{"parameterUnit":"m.s-1","parameterCategory":2,"la1":30.2991,"la2":30.254,"lo1":-89.0895,"lo2":-89.0444,"dy":0.0017,"dx":0.0017,"nx":28,"ny":28,"refTime":"2025-06-14T09:00:00:Z","depth":"2","parameterNumber":2,"parameterNumberName":"U-component_of_CURRENTS"},"data":[0,0,0,0,0,0,0,0,0,0,0,0,0,0,0,0,0,0,0,0,0,0,0,0,0,0,0,0,0,0,0,0,0,0,0,0,0,0,0,0,0,0,0,0,0,0,0,0,0,0,0,0,0,0,0,0,0,0,-0.1888,-0.1888,0,-0.1893,-0.1893,-0.1893,-0.1863,-0.1863,-0.1862,-0.1861,-0.1893,-0.1895,-0.1896,0,0,0,0,0,0,0,0,0,0,0,0,0,-0.1836,-0.1837,-0.1888,-0.1888,-0.1888,-0.1893,-0.1893,-0.1893,-0.1864,-0.1863,-0.1862,-0.1861,-0.1893,-0.1895,-0.1897,0,0,0,0,0,0,0,0,0,0,0,0,0,-0.1852,-0.1838,-0.1888,-0.1874,-0.1872,-0.1893,-0.1893,-0.1893,-0.1864,-0.1863,-0.1861,-0.186,-0.1892,-0.1894,-0.1897,-0.1938,0,0,-0.1904,-0.1906,0,0,0,0,0,0,0,0,-0.1851,-0.1854,-0.1876,-0.1875,-0.1873,-0.1876,-0.1886,-0.1909,-0.1864,-0.1867,-0.1861,-0.1859,-0.1891,-0.1893,-0.1897,-0.1939,-0.1941,-0.1905,-0.1906,-0.1907,-0.1908,0,0,0,0,0,0,0,-0.185,-0.1853,-0.189,-0.1876,-0.1874,-0.1861,-0.1862,-0.1891,-0.1887,-0.1867,-0.1865,-0.1866,-0.189,-0.1895,-0.1898,-0.1941,-0.1905,-0.1907,-0.1908,-0.1909,-0.1983,-0.1983,0,0,0,0,0,0,-0.1852,-0.1853,-0.189,-0.189,-0.1859,-0.1864,-0.1865,-0.1877,-0.1886,-0.1886,-0.1867,-0.1864,-0.1891,-0.1895,-0.1899,-0.1913,-0.1907,-0.191,-0.1911,-0.1982,-0.1983,-0.1984,0,0,0,0,0,0,-0.1851,-0.1855,-0.189,-0.187,-0.1874,-0.1866,-0.188,-0.1877,-0.1883,-0.1885,-0.1885,-0.1874,-0.189,-0.1895,-0.1907,-0.1915,-0.1911,-0.1913,-0.1982,-0.1983,-0.1983,-0.1963,0,0,0,0,0,0,-0.1849,-0.1855,-0.1861,-0.1871,-0.1875,-0.1902,-0.1881,-0.1878,-0.1885,-0.1882,-0.1893,-0.1894,-0.189,-0.1903,-0.1909,-0.1918,-0.1915,-0.1981,-0.1982,-0.1983,-0.1963,-0.1963,-0.1963,0,0,0,0,0,-0.1848,-0.1859,-0.1862,-0.1866,-0.1885,-0.1903,-0.1904,-0.1894,-0.1887,-0.1894,-0.1886,-0.1893,-0.1913,-0.1905,-0.1913,-0.1922,-0.1981,-0.1982,-0.1983,-0.1963,-0.1963,-0.1963,0,0,0,0,0,0,-0.1833,-0.1858,-0.1861,-0.1877,-0.1891,-0.1898,-0.19,-0.1903,-0.1905,-0.1901,-0.19,-0.1901,-0.1906,-0.1927,-0.1918,-0.1947,-0.195,-0.1952,-0.1932,-0.1932,-0.1932,-0.1937,-0.1917,0,0,0,0,0,-0.1837,-0.1851,-0.1874,-0.1884,-0.1895,-0.1903,-0.1908,-0.1909,-0.1913,-0.1913,-0.1916,-0.1921,-0.192,-0.1934,-0.1935,-0.1968,-0.1976,-0.198,-0.198,-0.1979,-0.1989,-0.1981,-0.198,-0.1987,-0.1987,-0.1987,0,0,-0.1829,-0.1846,-0.1852,-0.1881,-0.189,-0.1912,-0.1903,-0.1918,-0.1929,-0.1919,-0.1928,-0.1916,-0.1923,-0.1931,-0.194,-0.1952,-0.1986,-0.1981,-0.198,-0.199,-0.1982,-0.1981,-0.198,-0.1988,-0.1988,-0.1987,0,0,-0.1829,-0.1845,-0.1862,-0.1883,-0.1907,-0.1916,-0.1926,-0.1943,-0.1941,-0.196,-0.1934,-0.1926,-0.1956,-0.1941,-0.1943,-0.1955,-0.1971,-0.1966,-0.1987,-0.1979,-0.1978,-0.1977,-0.2001,-0.2002,-0.1983,-0.1983,-0.1983,0,-0.1819,-0.1842,-0.1867,-0.1896,-0.1904,-0.1923,-0.1942,-0.1955,-0.1969,-0.1968,-0.1964,-0.1962,-0.1957,-0.1955,-0.1947,-0.1953,-0.1964,-0.1982,-0.1977,-0.1976,-0.1976,-0.2,-0.2002,-0.1982,-0.1982,-0.1982,-0.1982,0,-0.1838,-0.1857,-0.1868,-0.1908,-0.1931,-0.1944,-0.1974,-0.1987,-0.1992,-0.1999,-0.1995,-0.1979,-0.1982,-0.1974,-0.1966,-0.1962,-0.1976,-0.196,-0.1972,-0.1973,-0.2,-0.2002,-0.1981,-0.1981,-0.1981,-0.1981,0,0,-0.1803,-0.1866,-0.1867,-0.1883,-0.1932,-0.1949,-0.198,-0.2,-0.2035,-0.2024,-0.2048,-0.201,-0.2004,-0.2006,-0.1988,-0.1982,-0.1978,-0.1977,-0.1977,-0.1994,-0.1987,-0.1846,-0.1835,-0.1957,-0.1957,-0.1957,-0.2011,0,-0.1797,-0.1832,-0.1875,-0.1904,-0.1917,-0.1957,-0.1999,-0.2028,-0.2056,-0.2093,-0.2059,-0.2092,-0.202,-0.2045,-0.2004,-0.1995,-0.1982,-0.1967,-0.1991,-0.1993,-0.1859,-0.1831,-0.1668,-0.1688,-0.2013,-0.2014,-0.2014,0,-0.1794,-0.1812,-0.183,-0.1897,-0.1914,-0.1942,-0.2003,-0.2058,-0.2119,-0.2151,-0.2151,-0.2164,-0.2147,-0.2103,-0.205,-0.2047,-0.2012,-0.1994,-0.1995,-0.1871,-0.1853,-0.1738,-0.168,-0.2018,-0.2017,-0.2017,-0.2017,0,-0.1722,-0.1782,-0.1782,-0.18,-0.1885,-0.1901,-0.1963,-0.205,-0.2162,-0.2209,-0.2304,-0.2243,-0.2285,-0.2197,-0.2121,-0.2112,-0.2068,-0.2058,-0.1896,-0.1889,-0.1758,-0.1737,-0.2015,-0.2015,-0.2015,-0.2015,-0.2015,0,-0.1679,-0.1689,-0.1745,-0.1742,-0.1802,-0.1872,-0.2011,-0.2043,-0.221,-0.2305,-0.2336,-0.2368,-0.2315,-0.2279,-0.2165,-0.2015,-0.2093,-0.1892,-0.1877,-0.1747,-0.1725,-0.2016,-0.2016,-0.2017,-0.2016,-0.2016,-0.2016,0,-0.1612,-0.1635,-0.1662,-0.1728,-0.1767,-0.1817,-0.2095,-0.2205,-0.2343,-0.247,-0.2509,-0.2536,-0.2414,-0.2342,-0.2223,-0.2103,-0.1968,-0.1896,-0.1755,-0.1717,-0.1803,-0.1801,-0.1756,-0.1751,-0.1747,-0.1743,-0.174,0,-0.1584,-0.1574,-0.1656,-0.1697,-0.1728,-0.1883,-0.2009,-0.2224,-0.2349,-0.2497,-0.2504,-0.2505,-0.236,-0.2177,-0.1954,-0.1756,-0.1835,-0.1563,-0.1483,-0.1778,-0.1769,-0.1774,-0.1778,-0.1336,-0.133,-0.1325,-0.1321,0,-0.1536,-0.1558,-0.1582,-0.1653,-0.1745,-0.1925,-0.2083,-0.2211,-0.2394,-0.2448,-0.2348,-0.2257,-0.2093,-0.1775,-0.1617,-0.1458,-0.1573,-0.1453,-0.1803,-0.1396,-0.1376,-0.137,-0.1388,-0.1277,-0.1282,-0.1285,-0.1287,-0.1289,-0.1516,-0.1526,-0.1541,-0.1602,-0.1726,-0.1812,-0.1882,-0.1993,-0.2065,-0.2008,-0.206,-0.1826,-0.1811,-0.1374,-0.1226,-0.1097,-0.12,-0.1157,-0.1176,-0.1199,-0.1109,-0.1079,-0.0912,-0.0914,-0.0916,-0.0918,-0.0919,0,-0.1466,-0.146,-0.1504,-0.1532,-0.1566,-0.1687,-0.182,-0.1804,-0.1678,-0.1631,-0.1506,-0.1267,-0.1094,-0.1046,-0.0771,-0.0722,-0.0734,-0.069,-0.0744,-0.0785,-0.0822,-0.0718,-0.0416,-0.0415,-0.0414,-0.0413,0,0,-0.1437,-0.1405,-0.1392,-0.1325,-0.1356,-0.1369,-0.1376,-0.125,-0.1203,-0.0978,-0.0844,-0.0967,-0.0988,-0.0727,-0.0666,-0.0498,-0.0629,-0.0433,-0.0829,-0.0932,-0.0969,-0.1072,-0.0952,0,0,0,0,0]},{"header":{"parameterUnit":"m.s-1","parameterCategory":2,"la1":30.2991,"la2":30.254,"lo1":-89.0895,"lo2":-89.0444,"dy":0.0017,"dx":0.0017,"nx":28,"ny":28,"refTime":"2025-06-14T09:00:00:Z","depth":"2","parameterNumber":3,"parameterNumberName":"V-component_of_CURRENTS"},"data":[0,0,0,0,0,0,0,0,0,0,0,0,0,0,0,0,0,0,0,0,0,0,0,0,0,0,0,0,0,0,0,0,0,0,0,0,0,0,0,0,0,0,0,0,0,0,0,0,0,0,0,0,0,0,0,0,0,0,-0.0303,-0.0303,0,-0.0304,-0.0303,-0.0303,-0.0286,-0.0285,-0.0285,-0.0284,-0.0208,-0.0206,-0.0205,0,0,0,0,0,0,0,0,0,0,0,0,0,-0.0304,-0.0303,-0.0303,-0.0303,-0.0303,-0.0304,-0.0303,-0.0303,-0.0286,-0.0285,-0.0285,-0.0284,-0.0209,-0.0207,-0.0205,0,0,0,0,0,0,0,0,0,0,0,0,0,-0.0303,-0.0303,-0.0303,-0.0295,-0.0294,-0.0304,-0.0303,-0.0303,-0.0286,-0.0285,-0.0284,-0.0284,-0.0209,-0.0207,-0.0204,-0.0201,0,0,-0.0197,-0.0196,0,0,0,0,0,0,0,0,-0.0303,-0.0303,-0.0296,-0.0296,-0.0295,-0.0295,-0.0276,-0.0266,-0.0286,-0.0288,-0.0284,-0.0284,-0.0231,-0.0227,-0.0228,-0.0197,-0.0194,-0.0196,-0.0195,-0.0194,-0.0193,0,0,0,0,0,0,0,-0.0303,-0.0303,-0.0302,-0.0296,-0.0296,-0.0297,-0.0296,-0.0274,-0.0261,-0.0288,-0.0287,-0.0288,-0.023,-0.023,-0.0226,-0.0193,-0.0197,-0.0194,-0.0193,-0.0192,-0.0114,-0.0114,0,0,0,0,0,0,-0.0304,-0.0303,-0.0302,-0.0303,-0.0299,-0.0298,-0.0297,-0.0295,-0.0263,-0.0258,-0.0289,-0.0288,-0.0235,-0.0229,-0.0223,-0.019,-0.0194,-0.0192,-0.019,-0.0115,-0.0114,-0.0114,0,0,0,0,0,0,-0.0304,-0.0304,-0.0302,-0.0303,-0.0303,-0.0298,-0.0296,-0.0295,-0.029,-0.0264,-0.0258,-0.0285,-0.0234,-0.0226,-0.0207,-0.0187,-0.019,-0.0188,-0.0116,-0.0115,-0.0114,-0.014,0,0,0,0,0,0,-0.0304,-0.0304,-0.0306,-0.0303,-0.0303,-0.0306,-0.0297,-0.0295,-0.0293,-0.0291,-0.0259,-0.0252,-0.0233,-0.0211,-0.0205,-0.0184,-0.0186,-0.0116,-0.0115,-0.0114,-0.014,-0.014,-0.014,0,0,0,0,0,-0.0304,-0.0314,-0.0306,-0.0306,-0.0305,-0.0306,-0.0306,-0.03,-0.0293,-0.0293,-0.0276,-0.0253,-0.0199,-0.021,-0.0202,-0.018,-0.0117,-0.0116,-0.0114,-0.014,-0.014,-0.014,0,0,0,0,0,0,-0.0322,-0.0313,-0.0304,-0.0312,-0.0306,-0.0303,-0.0308,-0.03,-0.0288,-0.0284,-0.0257,-0.0249,-0.0223,-0.02,-0.0212,-0.0153,-0.0149,-0.0146,-0.017,-0.017,-0.0171,-0.0169,-0.0184,0,0,0,0,0,-0.0325,-0.0326,-0.0316,-0.0323,-0.0319,-0.0311,-0.0312,-0.0305,-0.0295,-0.0289,-0.027,-0.0241,-0.0213,-0.0193,-0.0171,-0.0143,-0.0116,-0.0119,-0.012,-0.012,-0.0112,-0.0061,-0.0056,-0.011,-0.011,-0.011,0,0,-0.0336,-0.0331,-0.0332,-0.0326,-0.0322,-0.0326,-0.031,-0.031,-0.0306,-0.0281,-0.0273,-0.0248,-0.0209,-0.0182,-0.0165,-0.0158,-0.0093,-0.0118,-0.0119,-0.0111,-0.0059,-0.0053,-0.0049,-0.0109,-0.0109,-0.0109,0,0,-0.0367,-0.0349,-0.0364,-0.0357,-0.0349,-0.0338,-0.0336,-0.0328,-0.0314,-0.0305,-0.028,-0.0244,-0.0215,-0.0175,-0.0151,-0.0136,-0.0104,-0.0126,-0.0116,-0.0067,-0.0062,-0.0057,-0.0032,-0.0025,-0.0117,-0.0117,-0.0117,0,-0.0383,-0.0392,-0.037,-0.038,-0.0374,-0.0343,-0.0352,-0.0336,-0.0324,-0.03,-0.0304,-0.0237,-0.0206,-0.0149,-0.0145,-0.0134,-0.0115,-0.0122,-0.0068,-0.0062,-0.0057,-0.0032,-0.0024,-0.0118,-0.0118,-0.0118,-0.0118,0,-0.0424,-0.0427,-0.0433,-0.0428,-0.0418,-0.0418,-0.0388,-0.0368,-0.0345,-0.0322,-0.0271,-0.0235,-0.0189,-0.0168,-0.0154,-0.0092,-0.0095,-0.0084,-0.007,-0.0053,-0.0028,-0.0019,-0.012,-0.0119,-0.0119,-0.0119,0,0,-0.0464,-0.0463,-0.0464,-0.0461,-0.0437,-0.043,-0.0407,-0.0367,-0.0341,-0.0309,-0.0275,-0.0213,-0.0186,-0.0156,-0.0123,-0.0072,-0.0024,-0.0065,-0.0062,-0.0046,0.0066,0.0104,0.0118,-0.0008,-0.0006,-0.0005,0.0062,0,-0.0499,-0.0524,-0.0511,-0.0517,-0.0517,-0.0468,-0.0449,-0.0403,-0.0359,-0.0319,-0.0245,-0.0222,-0.0183,-0.0174,-0.0107,-0.0055,0.0001,-0.0045,0.0053,0.0056,0.0084,0.0131,0.0108,0.017,0.0071,0.0072,0.0073,0,-0.0542,-0.0543,-0.0564,-0.0539,-0.0534,-0.0535,-0.0468,-0.0458,-0.0379,-0.0346,-0.0281,-0.0242,-0.0166,-0.015,-0.0019,-0.0055,0.0008,0.0057,0.0061,0.0116,0.0113,0.0142,0.019,0.0089,0.0087,0.0086,0.0085,0,-0.0567,-0.0575,-0.0586,-0.0581,-0.0555,-0.0543,-0.0532,-0.0464,-0.0457,-0.0385,-0.0367,-0.0259,-0.0221,-0.0126,0.0005,-0.0027,0.0158,0.0122,0.0224,0.0226,0.0239,0.024,0.0229,0.0229,0.0229,0.0228,0.0228,0,-0.0599,-0.0604,-0.0602,-0.0605,-0.0619,-0.0583,-0.06,-0.0552,-0.0513,-0.0487,-0.0405,-0.0328,-0.0212,-0.0083,0.0009,0.017,0.0169,0.0242,0.026,0.0227,0.0227,0.0183,0.0177,0.0231,0.023,0.023,0.023,0,-0.0632,-0.0628,-0.0647,-0.0634,-0.0641,-0.0659,-0.0695,-0.0698,-0.064,-0.0603,-0.0594,-0.04,-0.021,-0.0064,0.012,0.0179,0.0313,0.0378,0.0326,0.0339,0.0327,0.0318,0.0437,0.0439,0.0441,0.0442,0.0444,0,-0.0649,-0.0666,-0.0697,-0.0741,-0.0749,-0.0791,-0.0824,-0.0782,-0.0776,-0.061,-0.0574,-0.0369,-0.0159,0.013,0.0272,0.0436,0.0441,0.0474,0.0416,0.035,0.0355,0.0344,0.0333,0.0407,0.0408,0.0409,0.041,0,-0.0694,-0.0716,-0.0744,-0.084,-0.0888,-0.0942,-0.0965,-0.0958,-0.0865,-0.0752,-0.0496,-0.0306,-0.0001,0.0231,0.0422,0.0507,0.0431,0.0493,0.0472,0.0363,0.033,0.0332,0.0321,0.0416,0.0416,0.0415,0.0415,0.0415,-0.0746,-0.0796,-0.0864,-0.0949,-0.1018,-0.1052,-0.106,-0.1008,-0.091,-0.0677,-0.0457,-0.0139,-0.0004,0.0314,0.046,0.0567,0.0546,0.0515,0.051,0.0504,0.0494,0.0467,0.0575,0.0575,0.0575,0.0576,0.0576,0,-0.0822,-0.0885,-0.0979,-0.1069,-0.1151,-0.1157,-0.1126,-0.108,-0.09,-0.0612,-0.0334,-0.0113,0.0142,0.0323,0.05,0.0569,0.0538,0.0576,0.0505,0.0498,0.0492,0.0478,0.0557,0.0557,0.0558,0.0558,0,0,-0.0872,-0.0981,-0.1026,-0.1167,-0.1228,-0.1275,-0.1228,-0.107,-0.0858,-0.0525,-0.0263,-0.004,0.0172,0.0243,0.0362,0.0497,0.0476,0.0504,0.0509,0.0407,0.04,0.0449,0.042,0,0,0,0,0]}],[{"header":{"parameterUnit":"m.s-1","parameterCategory":2,"la1":30.2991,"la2":30.254,"lo1":-89.0895,"lo2":-89.0444,"dy":0.0017,"dx":0.0017,"nx":28,"ny":28,"refTime":"2025-06-14T09:00:00:Z","depth":"4","parameterNumber":2,"parameterNumberName":"U-component_of_CURRENTS"},"data":[0,0,0,0,0,0,0,0,0,0,0,0,0,0,0,0,0,0,0,0,0,0,0,0,0,0,0,0,0,0,0,0,0,0,0,0,0,0,0,0,0,0,0,0,0,0,0,0,0,0,0,0,0,0,0,0,0,0,-0.135,-0.135,0,-0.1397,-0.1397,-0.1398,-0.1419,-0.1419,-0.1419,-0.1419,-0.1466,-0.1467,-0.1469,0,0,0,0,0,0,0,0,0,0,0,0,0,-0.1285,-0.1286,-0.1349,-0.135,-0.1351,-0.1397,-0.1397,-0.1398,-0.1419,-0.1419,-0.1419,-0.1419,-0.1466,-0.1467,-0.1469,0,0,0,0,0,0,0,0,0,0,0,0,0,-0.132,-0.1286,-0.1349,-0.1366,-0.1368,-0.1397,-0.1397,-0.1398,-0.1419,-0.1419,-0.1419,-0.1418,-0.1465,-0.1467,-0.1469,-0.1484,0,0,-0.1475,-0.1476,0,0,0,0,0,0,0,0,-0.1318,-0.1323,-0.1363,-0.1365,-0.1368,-0.1402,-0.1392,-0.1427,-0.1419,-0.14,-0.1419,-0.1418,-0.1445,-0.1448,-0.1458,-0.1486,-0.1488,-0.1475,-0.1477,-0.1478,-0.1478,0,0,0,0,0,0,0,-0.1316,-0.1321,-0.1368,-0.1364,-0.1367,-0.1374,-0.1379,-0.1399,-0.1422,-0.1401,-0.1403,-0.1408,-0.1446,-0.1456,-0.1459,-0.1489,-0.1475,-0.1477,-0.1478,-0.1479,-0.1532,-0.1532,0,0,0,0,0,0,-0.131,-0.1319,-0.1367,-0.137,-0.1342,-0.1375,-0.1381,-0.1391,-0.1422,-0.1427,-0.1408,-0.1409,-0.1452,-0.1457,-0.1461,-0.1506,-0.1478,-0.1479,-0.1481,-0.1532,-0.1532,-0.1532,0,0,0,0,0,0,-0.1308,-0.1314,-0.1365,-0.1345,-0.1352,-0.1377,-0.1388,-0.1392,-0.1424,-0.1427,-0.1432,-0.1439,-0.1452,-0.1458,-0.1489,-0.1507,-0.148,-0.1482,-0.1531,-0.1532,-0.1532,-0.158,0,0,0,0,0,0,-0.1306,-0.1313,-0.1331,-0.1345,-0.1353,-0.1394,-0.1388,-0.1393,-0.1426,-0.1428,-0.1455,-0.1458,-0.1453,-0.1486,-0.1491,-0.1509,-0.1484,-0.1531,-0.1532,-0.1532,-0.1578,-0.1581,-0.1585,0,0,0,0,0,-0.1304,-0.1326,-0.1332,-0.1338,-0.1373,-0.1395,-0.1401,-0.1417,-0.1428,-0.1446,-0.146,-0.1458,-0.1491,-0.1489,-0.1494,-0.1513,-0.1531,-0.1531,-0.1532,-0.1576,-0.1581,-0.1585,0,0,0,0,0,0,-0.1308,-0.1331,-0.1337,-0.1366,-0.1385,-0.1399,-0.1424,-0.1435,-0.1462,-0.1471,-0.1472,-0.1476,-0.1506,-0.1503,-0.15,-0.1525,-0.1507,-0.1508,-0.1538,-0.1543,-0.1546,-0.1536,-0.1485,0,0,0,0,0,-0.1317,-0.134,-0.1357,-0.1382,-0.1396,-0.1416,-0.1433,-0.1444,-0.1463,-0.1477,-0.1493,-0.1503,-0.1509,-0.1522,-0.1527,-0.1555,-0.1535,-0.1565,-0.1568,-0.1571,-0.1565,-0.1551,-0.1553,-0.1534,-0.1534,-0.1533,0,0,-0.1323,-0.134,-0.1353,-0.1384,-0.1404,-0.1427,-0.1427,-0.1461,-0.148,-0.1478,-0.152,-0.1523,-0.1518,-0.1539,-0.1551,-0.1543,-0.1567,-0.1572,-0.1575,-0.1566,-0.1551,-0.1553,-0.1555,-0.1534,-0.1534,-0.1534,0,0,-0.1342,-0.1367,-0.1391,-0.1411,-0.1445,-0.1454,-0.147,-0.1499,-0.1517,-0.1554,-0.1545,-0.1558,-0.1588,-0.1576,-0.1574,-0.1602,-0.1585,-0.1606,-0.1623,-0.161,-0.1611,-0.1612,-0.1594,-0.1593,-0.1609,-0.1609,-0.1609,0,-0.1349,-0.1376,-0.1401,-0.1429,-0.1445,-0.147,-0.1492,-0.1516,-0.1551,-0.1559,-0.1574,-0.1594,-0.1599,-0.1601,-0.1606,-0.1611,-0.1597,-0.1612,-0.1615,-0.1616,-0.1616,-0.1596,-0.1595,-0.1612,-0.1611,-0.1611,-0.1611,0,-0.1375,-0.1405,-0.1423,-0.146,-0.1486,-0.1509,-0.1538,-0.1567,-0.1594,-0.1607,-0.1632,-0.1637,-0.164,-0.1647,-0.1641,-0.1641,-0.1629,-0.1622,-0.1607,-0.1621,-0.1599,-0.1597,-0.1615,-0.1614,-0.1614,-0.1613,0,0,-0.1358,-0.1425,-0.1432,-0.1449,-0.15,-0.1516,-0.1558,-0.1583,-0.1601,-0.1642,-0.1655,-0.1673,-0.1674,-0.1669,-0.1662,-0.1657,-0.1654,-0.1645,-0.1643,-0.1631,-0.1623,-0.1516,-0.1502,-0.1653,-0.1653,-0.1652,-0.1609,0,-0.1363,-0.1408,-0.1445,-0.1482,-0.1501,-0.1539,-0.1569,-0.1601,-0.163,-0.1652,-0.1662,-0.1676,-0.1683,-0.1685,-0.1683,-0.1657,-0.1649,-0.1666,-0.1607,-0.1605,-0.1511,-0.1496,-0.1651,-0.1607,-0.1606,-0.1606,-0.1605,0,-0.1363,-0.1392,-0.1429,-0.1477,-0.1491,-0.1517,-0.1555,-0.1586,-0.1623,-0.1648,-0.1668,-0.168,-0.1679,-0.1684,-0.1657,-0.167,-0.1649,-0.1633,-0.1631,-0.1508,-0.1492,-0.1588,-0.16,-0.16,-0.1601,-0.1601,-0.1602,0,-0.131,-0.1375,-0.1397,-0.1416,-0.1479,-0.1499,-0.1529,-0.1576,-0.1599,-0.1636,-0.1652,-0.1666,-0.1667,-0.1653,-0.1635,-0.1646,-0.1597,-0.1605,-0.1488,-0.1481,-0.1573,-0.1572,-0.1579,-0.1579,-0.1579,-0.1579,-0.158,0,-0.1275,-0.1299,-0.1374,-0.1382,-0.1414,-0.1464,-0.1496,-0.1534,-0.1573,-0.1586,-0.1636,-0.1641,-0.1661,-0.1645,-0.1627,-0.1538,-0.159,-0.1475,-0.1455,-0.1595,-0.1597,-0.1572,-0.1571,-0.1578,-0.1578,-0.1578,-0.1579,0,-0.1213,-0.1261,-0.13,-0.1369,-0.139,-0.1412,-0.1481,-0.1488,-0.1541,-0.1556,-0.1567,-0.1614,-0.159,-0.1593,-0.1562,-0.1507,-0.1448,-0.1408,-0.1551,-0.1542,-0.1346,-0.1349,-0.1263,-0.1258,-0.1255,-0.1251,-0.1249,0,-0.1184,-0.1194,-0.1285,-0.1303,-0.1335,-0.1378,-0.1393,-0.1462,-0.1462,-0.1527,-0.1507,-0.1526,-0.1543,-0.1406,-0.1432,-0.1367,-0.1356,-0.1312,-0.133,-0.132,-0.131,-0.1319,-0.1326,-0.1243,-0.1242,-0.1241,-0.124,0,-0.1129,-0.1175,-0.1208,-0.1239,-0.1263,-0.1284,-0.1305,-0.13,-0.1357,-0.1441,-0.1405,-0.1387,-0.1356,-0.1332,-0.1283,-0.1248,-0.133,-0.1274,-0.1282,-0.1299,-0.1296,-0.1291,-0.1303,-0.1228,-0.1229,-0.1231,-0.1231,0,-0.1099,-0.1109,-0.1144,-0.1157,-0.1185,-0.114,-0.1183,-0.1164,-0.118,-0.1257,-0.1254,-0.1282,-0.1347,-0.1269,-0.1232,-0.1175,-0.1159,-0.1112,-0.1128,-0.1143,-0.1122,-0.1102,-0.0939,0,0,0,0,0,-0.1057,-0.1036,-0.1047,-0.1029,-0.1043,-0.1041,-0.1087,-0.1124,-0.1203,-0.1139,-0.1187,-0.1161,-0.1116,-0.1141,-0.1053,-0.116,-0.115,-0.1051,-0.1103,-0.1157,-0.1172,-0.1158,0,0,0,0,0,0,-0.1021,-0.1032,-0.1011,-0.0902,-0.0856,-0.0832,-0.0856,-0.0912,-0.0884,-0.0994,-0.0978,-0.1069,-0.1043,-0.1135,-0.1021,-0.1023,-0.1026,-0.1085,-0.1081,-0.1149,-0.1162,-0.1174,-0.1164,0,0,0,0,0]},{"header":{"parameterUnit":"m.s-1","parameterCategory":2,"la1":30.2991,"la2":30.254,"lo1":-89.0895,"lo2":-89.0444,"dy":0.0017,"dx":0.0017,"nx":28,"ny":28,"refTime":"2025-06-14T09:00:00:Z","depth":"4","parameterNumber":3,"parameterNumberName":"V-component_of_CURRENTS"},"data":[0,0,0,0,0,0,0,0,0,0,0,0,0,0,0,0,0,0,0,0,0,0,0,0,0,0,0,0,0,0,0,0,0,0,0,0,0,0,0,0,0,0,0,0,0,0,0,0,0,0,0,0,0,0,0,0,0,0,-0.0265,-0.0265,0,-0.0263,-0.0263,-0.0263,-0.0251,-0.025,-0.025,-0.025,-0.0201,-0.02,-0.0199,0,0,0,0,0,0,0,0,0,0,0,0,0,-0.0257,-0.0258,-0.0265,-0.0265,-0.0265,-0.0263,-0.0263,-0.0263,-0.0251,-0.025,-0.025,-0.025,-0.0201,-0.02,-0.0199,0,0,0,0,0,0,0,0,0,0,0,0,0,-0.0258,-0.0258,-0.0265,-0.0259,-0.0259,-0.0263,-0.0263,-0.0263,-0.0251,-0.025,-0.025,-0.025,-0.0202,-0.02,-0.0199,-0.0196,0,0,-0.0194,-0.0193,0,0,0,0,0,0,0,0,-0.0258,-0.0258,-0.026,-0.0259,-0.0259,-0.0257,-0.0243,-0.0239,-0.0251,-0.0253,-0.025,-0.0249,-0.0216,-0.0213,-0.0214,-0.0194,-0.0192,-0.0193,-0.0193,-0.0192,-0.0191,0,0,0,0,0,0,0,-0.0258,-0.0258,-0.0264,-0.026,-0.0259,-0.0257,-0.0256,-0.0242,-0.0235,-0.0253,-0.0252,-0.0253,-0.0215,-0.0215,-0.0212,-0.0191,-0.0194,-0.0192,-0.0191,-0.019,-0.0158,-0.0158,0,0,0,0,0,0,-0.026,-0.0258,-0.0264,-0.0264,-0.0258,-0.0257,-0.0257,-0.0258,-0.0236,-0.0233,-0.0253,-0.0253,-0.0218,-0.0214,-0.021,-0.0178,-0.0192,-0.019,-0.0189,-0.0157,-0.0158,-0.0158,0,0,0,0,0,0,-0.026,-0.0261,-0.0264,-0.0261,-0.0262,-0.0258,-0.0259,-0.0258,-0.0258,-0.0238,-0.0233,-0.0255,-0.0218,-0.0213,-0.0201,-0.0177,-0.019,-0.0188,-0.0157,-0.0157,-0.0158,-0.0131,0,0,0,0,0,0,-0.026,-0.0261,-0.0264,-0.0262,-0.0262,-0.0266,-0.0259,-0.0258,-0.0259,-0.0258,-0.0237,-0.0232,-0.0217,-0.0203,-0.0199,-0.0175,-0.0187,-0.0157,-0.0157,-0.0158,-0.0132,-0.0131,-0.0129,0,0,0,0,0,-0.0259,-0.0265,-0.0264,-0.0265,-0.0266,-0.0266,-0.0266,-0.0262,-0.026,-0.026,-0.0249,-0.0233,-0.0201,-0.0202,-0.0197,-0.0172,-0.0157,-0.0157,-0.0158,-0.0133,-0.0131,-0.0129,0,0,0,0,0,0,-0.0265,-0.0264,-0.0263,-0.0268,-0.0267,-0.0264,-0.0267,-0.0265,-0.0257,-0.0256,-0.0236,-0.0231,-0.021,-0.0204,-0.0206,-0.0167,-0.0176,-0.0175,-0.0158,-0.0156,-0.0155,-0.013,-0.0186,0,0,0,0,0,-0.0268,-0.0272,-0.0269,-0.0275,-0.0274,-0.0272,-0.0272,-0.0269,-0.0263,-0.026,-0.0247,-0.0231,-0.0208,-0.0194,-0.0182,-0.0161,-0.0137,-0.0143,-0.0142,-0.0141,-0.0119,-0.0051,-0.004,-0.0158,-0.0158,-0.0158,0,0,-0.0274,-0.0274,-0.0277,-0.0277,-0.0276,-0.0269,-0.0271,-0.0273,-0.0258,-0.0255,-0.0237,-0.0229,-0.0205,-0.018,-0.017,-0.0169,-0.0105,-0.0141,-0.0139,-0.0118,-0.005,-0.0038,-0.0027,-0.0158,-0.0158,-0.0158,0,0,-0.0289,-0.0286,-0.0294,-0.0287,-0.0286,-0.0276,-0.0277,-0.0274,-0.0262,-0.0254,-0.0238,-0.0211,-0.0201,-0.0159,-0.0139,-0.0123,-0.0104,-0.0134,-0.0095,-0.0029,-0.0018,-0.0008,0.0001,0.0012,-0.0126,-0.0126,-0.0126,0,-0.0298,-0.0297,-0.0296,-0.0295,-0.028,-0.0277,-0.0266,-0.0256,-0.025,-0.0222,-0.0248,-0.0189,-0.0178,-0.0103,-0.0105,-0.0112,-0.0099,-0.01,-0.0023,-0.0012,-0.0002,0.0004,0.0016,-0.0125,-0.0125,-0.0125,-0.0126,0,-0.0312,-0.0305,-0.0307,-0.0295,-0.0281,-0.0273,-0.0251,-0.0234,-0.0226,-0.0205,-0.0153,-0.014,-0.0094,-0.0093,-0.0097,-0.0014,-0.004,-0.0032,-0.002,0.0012,0.0015,0.0027,-0.0123,-0.0124,-0.0124,-0.0125,0,0,-0.0339,-0.032,-0.032,-0.0305,-0.0272,-0.0266,-0.0222,-0.0172,-0.0135,-0.0125,-0.0064,-0.0031,-0.002,0.0002,0.0012,0.0062,0.0122,0.004,0.0043,0.006,0.0225,0.0152,0.0158,0.0144,0.0147,0.0149,0.0185,0,-0.0344,-0.0339,-0.0317,-0.0292,-0.0277,-0.0234,-0.0194,-0.0147,-0.0109,-0.0056,-0.0005,0.0032,0.0017,0.0029,0.0088,0.0112,0.0161,0.0109,0.0181,0.0183,0.0127,0.0173,0.0159,0.0194,0.0197,0.0199,0.02,0,-0.0357,-0.0345,-0.0328,-0.0273,-0.0262,-0.0248,-0.0159,-0.0126,-0.0033,-0.0002,0.007,0.0097,0.0174,0.0144,0.0244,0.0206,0.0223,0.0239,0.0241,0.0182,0.0135,0.0163,0.0222,0.0221,0.0219,0.0217,0.0216,0,-0.0373,-0.0344,-0.0327,-0.0312,-0.0259,-0.0233,-0.0201,-0.0114,-0.009,0.0027,0.0042,0.0167,0.0177,0.0264,0.0268,0.0269,0.0353,0.0365,0.0322,0.0315,0.0358,0.0347,0.0459,0.0459,0.0459,0.0459,0.0459,0,-0.0368,-0.0356,-0.0345,-0.0337,-0.0326,-0.0264,-0.0235,-0.0174,-0.0097,-0.0081,0.0046,0.0064,0.0204,0.0252,0.0299,0.0324,0.0382,0.0345,0.034,0.0358,0.0347,0.0364,0.0353,0.046,0.046,0.0459,0.0459,0,-0.0387,-0.0372,-0.0373,-0.0342,-0.0344,-0.0343,-0.0321,-0.0299,-0.0209,-0.0182,-0.0158,-0.0023,0.0061,0.0172,0.0289,0.0316,0.038,0.0371,0.0342,0.033,0.0295,0.0284,0.0375,0.0373,0.0372,0.037,0.0369,0,-0.0389,-0.0395,-0.0422,-0.0458,-0.0458,-0.0459,-0.0468,-0.0381,-0.0363,-0.0268,-0.0268,-0.0159,-0.0073,0.005,0.0181,0.0314,0.0315,0.0341,0.0378,0.0311,0.0297,0.0288,0.0279,0.0367,0.0366,0.0366,0.0366,0,-0.0414,-0.0444,-0.0464,-0.0547,-0.0587,-0.0608,-0.0609,-0.0605,-0.0509,-0.0444,-0.0364,-0.0251,-0.0155,0.0011,0.0104,0.0192,0.034,0.0326,0.0331,0.0366,0.0302,0.0287,0.0281,0.036,0.0361,0.0362,0.0362,0,-0.0463,-0.0508,-0.0571,-0.0637,-0.07,-0.0736,-0.0717,-0.0685,-0.0644,-0.051,-0.0509,-0.0341,-0.0224,-0.006,0.0015,0.0118,0.016,0.0185,0.0199,0.0206,0.0149,0.0043,0.0034,0,0,0,0,0,-0.0509,-0.0577,-0.0656,-0.073,-0.0791,-0.0812,-0.0804,-0.0762,-0.0682,-0.0645,-0.0558,-0.0458,-0.0274,-0.0173,-0.008,-0.0021,0.016,0.0087,0.0191,0.033,0.0337,0.0294,0,0,0,0,0,0,-0.0551,-0.0636,-0.0675,-0.0792,-0.0849,-0.0899,-0.0889,-0.0831,-0.0774,-0.0681,-0.0567,-0.0474,-0.0279,-0.0334,-0.0092,-0.0056,0.0012,0.0196,0.0197,0.0327,0.0333,0.0338,0.0296,0,0,0,0,0]}]]